Commerce, GA

10:00 AM EDT on September 26, 2016 (GMT -0400)
Jefferson

Weather History for K19A - November, 2013

Change the Weather History Date:

Wednesday, November 6, 2013

  Actual Average (KGVL) Record (KGVL)
Temperature  
Mean Temperature 61 °F 56 °F  
Max Temperature 71 °F 65 °F 80 °F (1938)
Min Temperature 51 °F 46 °F 24 °F (1939)
Degree Days  
Heating Degree Days 4 10  
Month to date heating degree days 54  
Since 1 July heating degree days 212  
Growing Degree Days 11 (Base 50)    
Moisture  
Dew Point 47 °F    
Average Humidity 63    
Maximum Humidity 88    
Minimum Humidity 38    
Precipitation  
Precipitation 0.00 in 0.12 in 2.35 in (1977)
Month to date precipitation 0.66  
Year to date precipitation 45.67  
Sea Level Pressure  
Sea Level Pressure 30.26 in    
Wind  
Wind Speed 3 mph (East)    
Max Wind Speed 7 mph    
Max Gust Speed -    
Visibility 10 miles    
Events      
T = Trace of Precipitation, MM = Missing Value Source: NWS Daily Summary

Daily Weather History Graph

Daily Weather History Graph

Search for Another Location

Airport or City:

Trip Planner

Search our weather history database for the weather conditions in past years. The results will help you decide how hot, cold, wet, or windy it might be!

Date:

Astronomy

Nov. 06, 2013 Rise Set
Actual Time 6:58 AM EST 5:36 PM EST
Civil Twilight 6:32 AM EST 6:02 PM EST
Nautical Twilight 6:02 AM EST 6:32 PM EST
Astronomical Twilight 5:33 AM EST 7:01 PM EST
Moon 10:09 AM EST (11/6) 8:43 PM EST (11/6)
Length of Visible Light 11h 30m
Length of Day
10h 37m
Waxing Crescent, 13% of the Moon is Illuminated
Nov 6
Waxing Crescent
Nov 10
First Quarter
Nov 17
Full
Nov 25
Last Quarter
Dec 2
New

Hourly Weather History & Observations

Time (EST) Temp. Dew Point Humidity Pressure Visibility Wind Dir Wind Speed Gust Speed Precip Events Conditions
12:15 AM 51.8 °F 42.8 °F 71% 30.37 in 7.0 mi East 6.9 mph - N/A   Overcast
12:35 AM 51.8 °F 46.4 °F 82% 30.37 in 7.0 mi East 4.6 mph - N/A   Overcast
12:55 AM 51.8 °F 46.4 °F 82% 30.37 in 10.0 mi East 4.6 mph - N/A   Overcast
1:35 AM 51.8 °F 46.4 °F 82% 30.36 in 10.0 mi East 3.5 mph - N/A   Overcast
1:55 AM 51.8 °F 46.4 °F 82% 30.35 in 10.0 mi East 3.5 mph - N/A   Overcast
2:15 AM 51.8 °F 46.4 °F 82% 30.35 in 10.0 mi Calm Calm - N/A   Overcast
2:35 AM 51.8 °F 46.4 °F 82% 30.33 in 10.0 mi Calm Calm - N/A   Overcast
2:55 AM 51.8 °F 46.4 °F 82% 30.33 in 10.0 mi East 3.5 mph - N/A   Overcast
3:15 AM 51.8 °F 46.4 °F 82% 30.33 in 10.0 mi ENE 3.5 mph - N/A   Overcast
3:35 AM 51.8 °F 48.2 °F 88% 30.32 in 10.0 mi Calm Calm - N/A   Overcast
3:55 AM 51.8 °F 48.2 °F 88% 30.31 in 10.0 mi Calm Calm - N/A   Overcast
4:15 AM 51.8 °F 46.4 °F 82% 30.31 in 10.0 mi Calm Calm - N/A   Overcast
4:35 AM 51.8 °F 46.4 °F 82% 30.31 in 10.0 mi ENE 3.5 mph - N/A   Overcast
4:55 AM 51.8 °F 46.4 °F 82% 30.31 in 10.0 mi East 3.5 mph - N/A   Overcast
5:15 AM 53.6 °F 46.4 °F 77% 30.31 in 10.0 mi Calm Calm - N/A   Overcast
5:35 AM 53.6 °F 46.4 °F 77% 30.31 in 10.0 mi Calm Calm - N/A   Overcast
5:55 AM 53.6 °F 46.4 °F 77% 30.31 in 10.0 mi ENE 3.5 mph - N/A   Overcast
6:15 AM 53.6 °F 46.4 °F 77% 30.31 in 10.0 mi Calm Calm - N/A   Overcast
6:35 AM 53.6 °F 46.4 °F 77% 30.31 in 10.0 mi Calm Calm - N/A   Overcast
6:55 AM 53.6 °F 46.4 °F 77% 30.32 in 10.0 mi Calm Calm - N/A   Overcast
7:15 AM 53.6 °F 46.4 °F 77% 30.33 in 10.0 mi Calm Calm - N/A   Overcast
7:35 AM 53.6 °F 46.4 °F 77% 30.34 in 10.0 mi Calm Calm - N/A   Overcast
7:55 AM 53.6 °F 46.4 °F 77% 30.34 in 10.0 mi Calm Calm - N/A   Overcast
8:15 AM 55.4 °F 46.4 °F 72% 30.34 in 10.0 mi ENE 4.6 mph - N/A   Overcast
8:35 AM 55.4 °F 44.6 °F 67% 30.34 in 10.0 mi East 4.6 mph - N/A   Overcast
8:55 AM 55.4 °F 44.6 °F 67% 30.34 in 10.0 mi East 5.8 mph - N/A   Overcast
9:15 AM 57.2 °F 44.6 °F 63% 30.34 in 10.0 mi ENE 3.5 mph - N/A   Overcast
9:35 AM 59.0 °F 44.6 °F 59% 30.33 in 10.0 mi East 5.8 mph - N/A   Overcast
9:55 AM 59.0 °F 44.6 °F 59% 30.33 in 10.0 mi East 5.8 mph - N/A   Overcast
10:15 AM 59.0 °F 44.6 °F 59% 30.33 in 10.0 mi East 5.8 mph - N/A   Overcast
10:35 AM 60.8 °F 44.6 °F 55% 30.32 in 10.0 mi ESE 5.8 mph - N/A   Overcast
10:55 AM 62.6 °F 44.6 °F 52% 30.32 in 10.0 mi East 3.5 mph - N/A   Overcast
11:15 AM 62.6 °F 44.6 °F 52% 30.31 in 10.0 mi SE 3.5 mph - N/A   Mostly Cloudy
11:35 AM 64.4 °F 44.6 °F 49% 30.30 in 10.0 mi East 3.5 mph - N/A   Mostly Cloudy
11:55 AM 68.0 °F 44.6 °F 43% 30.30 in 10.0 mi ESE 6.9 mph - N/A   Mostly Cloudy
12:15 PM 66.2 °F 44.6 °F 46% 30.28 in 10.0 mi Calm Calm - N/A   Scattered Clouds
12:35 PM 69.8 °F 44.6 °F 40% 30.26 in 10.0 mi ESE 4.6 mph - N/A   Mostly Cloudy
12:55 PM 69.8 °F 44.6 °F 40% 30.25 in 10.0 mi Calm Calm - N/A   Scattered Clouds
1:15 PM 69.8 °F 44.6 °F 40% 30.24 in 10.0 mi SE 4.6 mph - N/A   Scattered Clouds
1:35 PM 71.6 °F 44.6 °F 38% 30.22 in 10.0 mi ESE 6.9 mph - N/A   Mostly Cloudy
1:55 PM 71.6 °F 44.6 °F 38% 30.21 in 10.0 mi SE 5.8 mph - N/A   Scattered Clouds
2:15 PM 71.6 °F 44.6 °F 38% 30.21 in 10.0 mi East 3.5 mph - N/A   Clear
2:35 PM 71.6 °F 44.6 °F 38% 30.20 in 10.0 mi East 4.6 mph - N/A   Scattered Clouds
2:55 PM 71.6 °F 44.6 °F 38% 30.20 in 10.0 mi East 3.5 mph - N/A   Scattered Clouds
3:15 PM 71.6 °F 44.6 °F 38% 30.19 in 10.0 mi ESE 4.6 mph - N/A   Mostly Cloudy
3:35 PM 71.6 °F 44.6 °F 38% 30.19 in 10.0 mi East 3.5 mph - N/A   Scattered Clouds
3:55 PM 71.6 °F 44.6 °F 38% 30.18 in 10.0 mi ESE 3.5 mph - N/A   Scattered Clouds
4:15 PM 71.6 °F 44.6 °F 38% 30.18 in 5.0 mi ESE 4.6 mph - N/A   Haze
4:35 PM 69.8 °F 46.4 °F 43% 30.18 in 5.0 mi Calm Calm - N/A   Haze
4:55 PM 69.8 °F 46.4 °F 43% 30.18 in 10.0 mi Calm Calm - N/A   Mostly Cloudy
5:15 PM 68.0 °F 48.2 °F 49% 30.18 in 10.0 mi Calm Calm - N/A   Overcast
5:35 PM 68.0 °F 48.2 °F 49% 30.18 in 10.0 mi Calm Calm - N/A   Overcast
5:55 PM 64.4 °F 50.0 °F 59% 30.18 in 10.0 mi Calm Calm - N/A   Scattered Clouds
6:15 PM 64.4 °F 50.0 °F 59% 30.18 in 10.0 mi Calm Calm - N/A   Mostly Cloudy
6:35 PM 64.4 °F 48.2 °F 56% 30.17 in 10.0 mi Calm Calm - N/A   Overcast
6:55 PM 64.4 °F 48.2 °F 56% 30.18 in 10.0 mi Calm Calm - N/A   Overcast
7:15 PM 64.4 °F 48.2 °F 56% 30.18 in 10.0 mi Calm Calm - N/A   Overcast
7:35 PM 64.4 °F 50.0 °F 59% 30.17 in 10.0 mi Calm Calm - N/A   Overcast
7:55 PM 64.4 °F 48.2 °F 56% 30.17 in 10.0 mi Calm Calm - N/A   Overcast
8:15 PM 62.6 °F 48.2 °F 59% 30.17 in 10.0 mi Calm Calm - N/A   Scattered Clouds
8:35 PM 60.8 °F 48.2 °F 63% 30.17 in 10.0 mi Calm Calm - N/A   Mostly Cloudy
8:55 PM 62.6 °F 50.0 °F 63% 30.17 in 10.0 mi Calm Calm - N/A   Overcast
9:15 PM 60.8 °F 50.0 °F 68% 30.17 in 10.0 mi Calm Calm - N/A   Scattered Clouds
9:35 PM 60.8 °F 50.0 °F 68% 30.16 in 10.0 mi Calm Calm - N/A   Mostly Cloudy
9:55 PM 60.8 °F 50.0 °F 68% 30.16 in 10.0 mi Calm Calm - N/A   Overcast
10:15 PM 60.8 °F 50.0 °F 68% 30.16 in 10.0 mi Calm Calm - N/A   Mostly Cloudy
10:35 PM 59.0 °F 50.0 °F 72% 30.15 in 10.0 mi Calm Calm - N/A   Scattered Clouds
10:55 PM 60.8 °F 48.2 °F 63% 30.14 in 10.0 mi Calm Calm - N/A   Clear
11:15 PM 59.0 °F 50.0 °F 72% 30.14 in 10.0 mi Calm Calm - N/A   Clear
11:35 PM 57.2 °F 50.0 °F 77% 30.14 in 10.0 mi Calm Calm - N/A   Clear
11:55 PM 57.2 °F 53.6 °F 88% 30.13 in 10.0 mi Calm Calm - N/A   Clear